| time (UTC) | temp F | wind direction | speed MPH | gust MPH | rain 1hr in | rain 24hr in | rain mn in | humidity % | barometer mb |
| 20260504213236 | 74 | 200 | 5.0 | 11.0 | 0.00 | 0.00 | 0.00 | 55 | 1003.1 |
| 20260504212736 | 73 | 202 | 5.0 | 11.0 | 0.00 | 0.00 | 0.00 | 57 | 1000.5 |
| 20260504212236 | 73 | 194 | 3.0 | 11.0 | 0.00 | 0.00 | 0.00 | 58 | 1002.4 |
| 20260504211735 | 72 | 199 | 4.0 | 11.0 | 0.00 | 0.00 | 0.00 | 59 | 1003.1 |
| 20260504211234 | 72 | 211 | 3.0 | 11.0 | 0.00 | 0.00 | 0.00 | 59 | 1003.3 |
| 20260504210733 | 71 | 217 | 5.0 | 11.0 | 0.00 | 0.00 | 0.00 | 60 | 1003.3 |
| 20260504210233 | 71 | 186 | 4.0 | 11.0 | 0.00 | 0.00 | 0.00 | 63 | 1003.2 |
| 20260504205732 | 69 | 194 | 3.0 | 11.0 | 0.00 | 0.00 | 0.00 | 65 | 1003.1 |
| 20260504205232 | 69 | 191 | 4.0 | 11.0 | 0.00 | 0.00 | 0.00 | 67 | 1003.3 |
| 20260504204732 | 68 | 191 | 4.0 | 11.0 | 0.00 | 0.00 | 0.00 | 68 | 1003.5 |
| 20260504204232 | 68 | 181 | 5.0 | 11.0 | 0.00 | 0.00 | 0.00 | 68 | 1003.5 |
| 20260504203732 | 68 | 176 | 5.0 | 11.0 | 0.00 | 0.00 | 0.00 | 69 | 1002.9 |
| 20260504203232 | 68 | 174 | 4.0 | 11.0 | 0.00 | 0.00 | 0.00 | 70 | 1003.2 |
| 20260504202731 | 67 | 184 | 5.0 | 11.0 | 0.00 | 0.00 | 0.00 | 71 | 1003.7 |
| 20260504202230 | 66 | 196 | 3.0 | 11.0 | 0.00 | 0.00 | 0.00 | 74 | 1003.9 |
| 20260504201730 | 65 | 202 | 3.0 | 11.0 | 0.00 | 0.00 | 0.00 | 74 | 1004.1 |
| 20260504201229 | 65 | 228 | 4.0 | 11.0 | 0.00 | 0.00 | 0.00 | 73 | 1004.4 |
| 20260504200728 | 66 | 223 | 4.0 | 11.0 | 0.00 | 0.00 | 0.00 | 71 | 1004.4 |
| 20260504200227 | 67 | 210 | 6.0 | 11.0 | 0.00 | 0.00 | 0.00 | 68 | 1004.5 |
| 20260504195727 | 68 | 205 | 6.0 | 11.0 | 0.00 | 0.00 | 0.00 | 65 | 1004.3 |
| 20260504195227 | 68 | 208 | 6.0 | 12.0 | 0.00 | 0.00 | 0.00 | 61 | 1004.2 |
| 20260504194726 | 69 | 230 | 5.0 | 12.0 | 0.00 | 0.00 | 0.00 | 58 | 1004.1 |
| 20260504194226 | 69 | 229 | 3.0 | 13.0 | 0.00 | 0.00 | 0.00 | 56 | 1003.8 |
| 20260504193726 | 69 | 212 | 5.0 | 13.0 | 0.00 | 0.00 | 0.00 | 55 | 1004.0 |
| 20260504193225 | 68 | 229 | 5.0 | 15.0 | 0.00 | 0.00 | 0.00 | 57 | 1003.9 |
| 20260504192725 | 68 | 245 | 4.0 | 16.0 | 0.00 | 0.00 | 0.00 | 57 | 1003.8 |
| 20260504192224 | 67 | 229 | 7.0 | 20.0 | 0.00 | 0.00 | 0.00 | 57 | 1003.4 |
| 20260504191724 | 67 | 221 | 10.0 | 20.0 | 0.00 | 0.00 | 0.00 | 60 | 1004.4 |
| 20260504191224 | 65 | 219 | 10.0 | 23.0 | 0.00 | 0.00 | 0.00 | 62 | 1004.2 |
| 20260504190723 | 65 | 224 | 10.0 | 25.0 | 0.00 | 0.00 | 0.00 | 66 | 1004.2 |
| 20260504185707 | 69 | 208 | 9.0 | 19.0 | 0.00 | 0.00 | 0.00 | 61 | 1005.1 |
| 20260504185207 | 69 | 210 | 9.0 | 16.0 | 0.00 | 0.00 | 0.00 | 59 | 1004.9 |
| 20260504184707 | 69 | 217 | 8.0 | 18.0 | 0.00 | 0.00 | 0.00 | 59 | 1005.0 |
| 20260504184207 | 69 | 225 | 8.0 | 18.0 | 0.00 | 0.00 | 0.00 | 59 | 1005.6 |
| 20260504183707 | 69 | 216 | 5.0 | 14.0 | 0.00 | 0.00 | 0.00 | 60 | 1005.5 |
| 20260504183206 | 70 | 214 | 6.0 | 14.0 | 0.00 | 0.00 | 0.00 | 60 | 1005.3 |
| 20260504182706 | 70 | 198 | 7.0 | 16.0 | 0.00 | 0.00 | 0.00 | 58 | 1005.1 |
| 20260504182205 | 70 | 222 | 7.0 | 16.0 | 0.00 | 0.00 | 0.00 | 58 | 1005.2 |
| 20260504181704 | 71 | 216 | 9.0 | 19.0 | 0.00 | 0.00 | 0.00 | 57 | 1005.2 |
| 20260504180648 | 71 | 209 | 7.0 | 15.0 | 0.00 | 0.00 | 0.00 | 58 | 1004.7 |
| 20260504180147 | 70 | 206 | 8.0 | 14.0 | 0.00 | 0.00 | 0.00 | 59 | 1004.8 |
| 20260504175646 | 70 | 193 | 8.0 | 16.0 | 0.00 | 0.00 | 0.00 | 59 | 1004.8 |
| 20260504175145 | 70 | 191 | 8.0 | 16.0 | 0.00 | 0.00 | 0.00 | 58 | 1004.3 |
| 20260504174644 | 70 | 206 | 6.0 | 14.0 | 0.00 | 0.00 | 0.00 | 59 | 1004.6 |
| 20260504174143 | 70 | 218 | 7.0 | 14.0 | 0.00 | 0.00 | 0.00 | 59 | 1004.5 |
| 20260504173642 | 70 | 192 | 6.0 | 13.0 | 0.00 | 0.00 | 0.00 | 59 | 1004.3 |
| 20260504173141 | 70 | 210 | 7.0 | 16.0 | 0.00 | 0.00 | 0.00 | 59 | 1004.1 |
| 20260504172640 | 71 | 198 | 7.0 | 16.0 | 0.00 | 0.00 | 0.00 | 59 | 1004.4 |
| 20260504172140 | 71 | 207 | 7.0 | 21.0 | 0.00 | 0.00 | 0.00 | 58 | 1005.1 |
| 20260504171640 | 71 | 204 | 5.0 | 21.0 | 0.00 | 0.00 | 0.00 | 58 | 1004.8 |
| 20260504170623 | 71 | 212 | 10.0 | 20.0 | 0.00 | 0.00 | 0.00 | 59 | 1004.9 |
| 20260504170123 | 71 | 189 | 7.0 | 19.0 | 0.00 | 0.00 | 0.00 | 59 | 1004.7 |
| 20260504160118 | 71 | 207 | 9.0 | 19.0 | 0.00 | 0.00 | 0.00 | 57 | 1005.4 |
| 20260504151010 | 68 | 210 | 3.0 | 12.0 | 0.00 | 0.00 | 0.00 | 62 | 1005.6 |
| 20260504150509 | 68 | 218 | 5.0 | 12.0 | 0.00 | 0.00 | 0.00 | 61 | 1005.3 |
| 20260504140947 | 64 | 222 | 4.0 | 13.0 | 0.00 | 0.00 | 0.00 | 67 | 1005.7 |
| 20260504140447 | 63 | 210 | 5.0 | 13.0 | 0.00 | 0.00 | 0.00 | 68 | 1005.9 |
| 20260504110314 | 54 | 166 | 3.0 | 12.0 | 0.00 | 0.00 | 0.00 | 72 | 1005.8 |
| 20260504100255 | 53 | 176 | 3.0 | 12.0 | 0.00 | 0.00 | 0.00 | 71 | 1006.5 |
| 20260504081133 | 53 | 178 | 2.0 | 12.0 | 0.00 | 0.00 | 0.00 | 70 | 1007.1 |
| 20260504080633 | 53 | 179 | 2.0 | 12.0 | 0.00 | 0.00 | 0.00 | 70 | 1007.0 |
| 20260504080132 | 53 | 174 | 3.0 | 12.0 | 0.00 | 0.00 | 0.00 | 69 | 1007.1 |
| 20260504070115 | 54 | 183 | 4.0 | 12.0 | 0.00 | 0.00 | 0.00 | 68 | 1007.2 |
| 20260504045959 | 56 | 187 | 4.0 | 12.0 | 0.00 | 0.00 | 0.00 | 64 | 1008.6 |
| 20260504045459 | 56 | 181 | 3.0 | 12.0 | 0.00 | 0.00 | 0.00 | 64 | 1008.5 |
| 20260504044959 | 56 | 184 | 3.0 | 12.0 | 0.00 | 0.00 | 0.00 | 64 | 1008.3 |
| 20260504044459 | 56 | 188 | 3.0 | 12.0 | 0.00 | 0.00 | 0.00 | 64 | 1008.4 |
| 20260504043958 | 56 | 186 | 4.0 | 12.0 | 0.00 | 0.00 | 0.00 | 64 | 1008.7 |
| 20260504043458 | 56 | 184 | 4.0 | 12.0 | 0.00 | 0.00 | 0.00 | 64 | 1008.6 |
| 20260504041929 | 56 | 194 | 4.0 | 12.0 | 0.00 | 0.00 | 0.00 | 63 | 1008.5 |
| 20260504041427 | 56 | 191 | 3.0 | 12.0 | 0.00 | 0.00 | 0.00 | 63 | 1008.5 |
| 20260504040411 | 56 | 176 | 4.0 | 12.0 | 0.00 | 0.00 | 0.00 | 62 | 1008.7 |
| 20260504035912 | 57 | 189 | 4.0 | 12.0 | 0.00 | 0.00 | 0.00 | 62 | 1008.6 |
| 20260504034340 | 57 | 185 | 5.0 | 14.0 | 0.00 | 0.00 | 0.00 | 61 | 1008.8 |
| 20260504033840 | 57 | 184 | 5.0 | 14.0 | 0.00 | 0.00 | 0.00 | 61 | 1009.1 |
| 20260504033339 | 57 | 191 | 3.0 | 12.0 | 0.00 | 0.00 | 0.00 | 61 | 1008.8 |
| 20260504031253 | 57 | 183 | 3.0 | 12.0 | 0.00 | 0.00 | 0.00 | 61 | 1009.3 |
| 20260504030239 | 57 | 192 | 5.0 | 12.0 | 0.00 | 0.00 | 0.00 | 61 | 1009.2 |
| 20260504025739 | 57 | 192 | 3.0 | 11.0 | 0.00 | 0.00 | 0.00 | 61 | 1009.4 |
| 20260504024207 | 57 | 186 | 3.0 | 11.0 | 0.00 | 0.00 | 0.00 | 61 | 1008.8 |
| 20260504023152 | 57 | 174 | 3.0 | 11.0 | 0.00 | 0.00 | 0.00 | 61 | 1008.9 |
| 20260504022651 | 57 | 174 | 3.0 | 11.0 | 0.00 | 0.00 | 0.00 | 61 | 1009.0 |
| 20260504022150 | 57 | 174 | 3.0 | 11.0 | 0.00 | 0.00 | 0.00 | 61 | 1009.0 |
| 20260504021650 | 57 | 169 | 3.0 | 11.0 | 0.00 | 0.00 | 0.00 | 61 | 1008.9 |
| 20260504020634 | 57 | 165 | 3.0 | 11.0 | 0.00 | 0.00 | 0.00 | 61 | 1009.1 |
| 20260504020135 | 57 | 173 | 3.0 | 11.0 | 0.00 | 0.00 | 0.00 | 61 | 1009.0 |
| 20260504015635 | 57 | 179 | 4.0 | 11.0 | 0.00 | 0.00 | 0.00 | 61 | 1008.8 |
| 20260504015134 | 57 | 175 | 4.0 | 11.0 | 0.00 | 0.00 | 0.00 | 61 | 1008.9 |
| 20260504014118 | 58 | 182 | 4.0 | 11.0 | 0.00 | 0.00 | 0.00 | 60 | 1008.9 |
| 20260504013618 | 58 | 190 | 3.0 | 11.0 | 0.00 | 0.00 | 0.00 | 60 | 1008.8 |
| 20260504013118 | 58 | 184 | 3.0 | 11.0 | 0.00 | 0.00 | 0.00 | 60 | 1009.2 |
| 20260504012102 | 58 | 184 | 4.0 | 11.0 | 0.00 | 0.00 | 0.00 | 60 | 1009.1 |
| 20260504011603 | 58 | 180 | 3.0 | 11.0 | 0.00 | 0.00 | 0.00 | 60 | 1009.2 |
| 20260504005516 | 58 | 179 | 3.0 | 11.0 | 0.00 | 0.00 | 0.00 | 58 | 1009.0 |
| 20260504005016 | 59 | 188 | 3.0 | 11.0 | 0.00 | 0.00 | 0.00 | 57 | 1008.9 |
| 20260504004001 | 59 | 188 | 3.0 | 11.0 | 0.00 | 0.00 | 0.00 | 56 | 1009.0 |
| 20260504003501 | 59 | 190 | 4.0 | 11.0 | 0.00 | 0.00 | 0.00 | 55 | 1009.0 |
| 20260504003001 | 59 | 190 | 4.0 | 11.0 | 0.00 | 0.00 | 0.00 | 55 | 1009.0 |
| 20260504002501 | 59 | 180 | 3.0 | 11.0 | 0.00 | 0.00 | 0.00 | 55 | 1009.0 |
| 20260504001445 | 59 | 181 | 4.0 | 11.0 | 0.00 | 0.00 | 0.00 | 54 | 1009.1 |
| 20260504000945 | 60 | 200 | 3.0 | 11.0 | 0.00 | 0.00 | 0.00 | 53 | 1008.9 |
| 20260504000443 | 60 | 200 | 4.0 | 11.0 | 0.00 | 0.00 | 0.00 | 53 | 1008.7 |
| 20260503235943 | 60 | 178 | 4.0 | 11.0 | 0.00 | 0.00 | 0.00 | 52 | 1009.2 |
| 20260503235443 | 60 | 177 | 4.0 | 11.0 | 0.00 | 0.00 | 0.00 | 52 | 1008.8 |
| 20260503234942 | 60 | 180 | 3.0 | 11.0 | 0.00 | 0.00 | 0.00 | 52 | 1009.1 |
| 20260503234441 | 60 | 166 | 5.0 | 11.0 | 0.00 | 0.00 | 0.00 | 51 | 1009.0 |
| 20260503233941 | 60 | 196 | 4.0 | 11.0 | 0.00 | 0.00 | 0.00 | 51 | 1009.3 |
| 20260503233441 | 60 | 190 | 3.0 | 11.0 | 0.00 | 0.00 | 0.00 | 50 | 1008.9 |
| 20260503232941 | 60 | 210 | 5.0 | 12.0 | 0.00 | 0.00 | 0.00 | 50 | 1009.3 |
| 20260503232440 | 60 | 211 | 6.0 | 14.0 | 0.00 | 0.00 | 0.00 | 50 | 1009.2 |
| 20260503231940 | 61 | 203 | 6.0 | 14.0 | 0.00 | 0.00 | 0.00 | 49 | 1009.1 |
| 20260503230925 | 61 | 201 | 6.0 | 15.0 | 0.00 | 0.00 | 0.00 | 49 | 1009.3 |
| 20260503230425 | 61 | 214 | 6.0 | 12.0 | 0.00 | 0.00 | 0.00 | 48 | 1009.4 |
| 20260503225925 | 61 | 198 | 6.0 | 14.0 | 0.00 | 0.00 | 0.00 | 48 | 1009.5 |
| 20260503225425 | 62 | 201 | 7.0 | 15.0 | 0.00 | 0.00 | 0.00 | 47 | 1009.3 |
| 20260503224925 | 62 | 190 | 7.0 | 15.0 | 0.00 | 0.00 | 0.00 | 47 | 1009.2 |
| 20260503224424 | 62 | 197 | 6.0 | 14.0 | 0.00 | 0.00 | 0.00 | 47 | 1009.4 |
| 20260503223924 | 62 | 193 | 5.0 | 13.0 | 0.00 | 0.00 | 0.00 | 47 | 1009.1 |
| 20260503222909 | 62 | 196 | 5.0 | 15.0 | 0.00 | 0.00 | 0.00 | 47 | 1009.4 |
| 20260503221853 | 62 | 203 | 7.0 | 14.0 | 0.00 | 0.00 | 0.00 | 47 | 1009.4 |
| 20260503221352 | 62 | 191 | 5.0 | 13.0 | 0.00 | 0.00 | 0.00 | 46 | 1009.6 |
| 20260503220852 | 62 | 213 | 5.0 | 13.0 | 0.00 | 0.00 | 0.00 | 47 | 1009.8 |
| 20260503220352 | 62 | 174 | 7.0 | 13.0 | 0.00 | 0.00 | 0.00 | 46 | 1009.7 |
| 20260503215852 | 62 | 180 | 5.0 | 14.0 | 0.00 | 0.00 | 0.00 | 45 | 1009.3 |
| 20260503215352 | 62 | 175 | 4.0 | 14.0 | 0.00 | 0.00 | 0.00 | 46 | 1009.3 |
| 20260503214851 | 62 | 193 | 6.0 | 13.0 | 0.00 | 0.00 | 0.00 | 46 | 1009.4 |
| 20260503214351 | 62 | 202 | 7.0 | 13.0 | 0.00 | 0.00 | 0.00 | 46 | 1009.9 |
| 20260503213850 | 62 | 202 | 6.0 | 14.0 | 0.00 | 0.00 | 0.00 | 46 | 1009.5 |
| 20260503213350 | 62 | 189 | 7.0 | 14.0 | 0.00 | 0.00 | 0.00 | 45 | 1009.8 |